sat.trackr.live / text

‹ back to catalog

STARLINK-33853

NORAD 63684 · 2025-085W

PAYLOAD ACTIVE UNKNOWN

§ Identity

Operator
Country
US
Launch date
2025-04-28
Launch site
AFETR
Launch vehicle
Mass (kg)
RCS (m²)

Purposes: comms

External: N2YO · Heavens-Above · Gunter

§ Orbital elements

Epoch: 2026-09-20T14:32:43.044000Z

Period
94.27 min
Inclination
43.0054°
Eccentricity
0.0002245
Mean motion
15.27594128 rev/d
Perigee alt
481.5 km
Apogee alt
484.5 km
Semi-major
6,861.1 km
B*
2.9543e-4
RAAN
9.8020°
Arg perigee
282.8944°
Mean anomaly
77.1657°
Rev number
7,868

§ Raw data

STARLINK-338531 63684U 25085W   26263.60605375  .00007879  00000+0  29543-3 0  99942 63684  43.0054   9.8020 0002245 282.8944  77.1657 15.27594128 78680

JSON: /api/v1/satellites/63684 · /tle

For live sub-satellite position, see the globe view (requires WebGL).

§ Visibility from observer

Set your observer location to see the next 7 days of passes ≥ 10°. The values pass through the URL so the page stays shareable.

No JS? Fill the form by hand. The geolocation button needs JavaScript.